STARLINK-36492, 67332

Orbit data source: Space-Track

STARLINK-36492, 67332 is a payload satellite owned by SpaceX/Seattle (US) in LEO that was launched on Sun, 04 Jan 2026 UTC via an FALCON 9 launch vehicle from the Air Force Eastern Test Range (AFETR). Payload-class satellites include a variety of spacecraft equipped with specific instruments for various scientific and technological missions. These include communications satellites like Starlink; space stations such as the ISS; scientific satellites like the Hubble; Earth observation satellites from companies like Planet Labs, Umbra, and HawkEye 360; GPS; miniature CubeSats for education and research; and military/defense satellites.

Loading next visibility...
Identifier
67332, 2026-002AD
Orbit
LEO
Country
Flag of USUS
Related business
Manufacturer
SpaceX/Seattle
Mission
Operational Commercial Communications
Bus & Motor
STARLINK V2MO, Unknown motor
Mass
575 kg wet, ~530 kg dry
Launch date (UTC)
2026-01-04 (2 months ago)
Launch vehicle
FALCON 9
Launch site
Air Force Eastern Test Range (AFETR)
Object type
Payload
Rocket body
Debris
Shape & HBR
Box + 2 Pan, 17.7 m
Radar Cross Section
36.964 m²

Expand to show TLE details & history
Last TLE update: 23 hours ago

TLE from 23 hours ago
0 STARLINK-36492
1 67332U 26002AD  26062.20996185  .00045861  00000-0  16622-2 0  9990
2 67332  43.0050   2.2305 0001881 262.0716  97.9923 15.27650120 10244
Epoch: 2026-03-03T05:02Z
TLE epoch observation values (Epoch: 2026-03-03T05:02:20.703Z)
Latitude
0.00001°
Longitude
125.65196°
Altitude
482.795 km
Speed
7.626 km/s
True Right ascension
00h 08m 55s
True Declination
0° 00' 00"
Sunlit
Object was in daylight at epoch
Visualization orbit readout
Latitude
Unknown
Longitude
Unknown
Altitude
Unknown
Speed
Unknown
Apparent Right ascension
Unknown
Apparent Declination
Unknown
Sunlit
N/A
Visualization observer readout
Local Sidereal Time
07:35:59
Azimuth
Unknown
Elevation
Unknown
Doppler factor
Unknown
Orbital elements
Apogee altitude
486.074 km
Perigee altitude
483.493 km
Semi-major axis
6,862.921 km
Eccentricity
0.00019
Inclination
43.005°
RAAN
2.2305°
Arg. of periapsis
262.0716°
True anomaly
98.01364°
Mean anomaly
97.9923°
Eccentric anomaly
98.00297°
Mean motion
3.81751 °/min
Orbital period
94.3 mins
BSTAR
0.0016622
Loading maneuver chart data...
Computing Atmospheric mass density...
Loading historical data...
Loading historical data...
Loading historical data...
Loading historical data...
Loading historical data...
Loading historical data...
Loading historical data...

Documentation

Showing up to 5 results
|